EW4824 Weather Reports


Display with metric or nautical units.
time (UTC)temp
F
wind
direction
speed
MPH
gust
MPH
rain 1hr
in
rain 24hr
in
rain mn
in
humidity
%
barometer
mb
20260506090818 70 170 0.0 0.0 0.00 0.00 0.00 20 1007.2
20260506090312 70 170 0.0 0.0 0.00 0.00 0.00 20 1007.1
20260506085810 70 170 0.0 0.0 0.00 0.00 0.00 20 1007.1
20260506085622 70 170 0.0 1.0 0.00 0.00 0.00 20 1007.1
20260506085117 70 170 0.0 1.0 0.00 0.00 0.00 20 1007.2
20260506084620 70 170 0.0 0.0 0.00 0.00 0.00 20 1007.2
20260506083811 70 170 0.0 0.0 0.00 0.00 0.00 20 1007.1
20260506083310 70 170 0.0 0.0 0.00 0.00 0.00 21 1007.1
20260506082808 70 170 0.0 0.0 0.00 0.00 0.00 21 1007.1
20260506082606 70 170 0.0 0.0 0.00 0.00 0.00 21 1007.0
20260506082559 70 170 0.0 0.0 0.00 0.00 0.00 21 1007.0
20260506081308 70 170 0.0 0.0 0.00 0.00 0.00 21 1007.0
20260506080808 69 170 0.0 0.0 0.00 0.00 0.00 22 1006.9
20260506080616 69 170 0.0 0.0 0.00 0.00 0.00 22 1007.0
20260506073308 68 170 0.0 0.0 0.00 0.00 0.00 24 1007.0
20260506072807 68 170 0.0 6.0 0.00 0.00 0.00 25 1007.0
20260506072306 67 148 0.0 6.0 0.00 0.00 0.00 26 1007.0
20260506071808 66 168 0.0 2.0 0.00 0.00 0.00 28 1006.9
20260506071307 66 168 0.0 2.0 0.00 0.00 0.00 29 1006.9
20260506070808 65 168 0.0 2.0 0.00 0.00 0.00 32 1006.9
20260506070308 65 168 0.0 0.0 0.00 0.00 0.00 36 1007.0
20260506070108 65 168 0.0 0.0 0.00 0.00 0.00 37 1006.9
20260506061801 66 168 0.0 0.0 0.00 0.00 0.00 42 1006.9
20260506061303 66 168 0.0 0.0 0.00 0.00 0.00 41 1007.0
20260506061122 66 168 0.0 0.0 0.00 0.00 0.00 43 1006.9
20260506060301 67 168 0.0 0.0 0.00 0.00 0.00 44 1006.9
20260506051252 68 168 0.0 0.0 0.00 0.00 0.00 47 1007.2
20260506050752 69 168 0.0 0.0 0.00 0.00 0.00 47 1007.2
20260506050254 69 168 0.0 0.0 0.00 0.00 0.00 47 1007.1
20260506050132 69 168 0.0 0.0 0.00 0.00 0.00 46 1007.0
20260506044748 69 168 0.0 0.0 0.00 0.00 0.00 50 1007.1
20260506044247 69 168 0.0 0.0 0.00 0.00 0.00 56 1007.0
20260506043745 69 168 0.0 0.0 0.00 0.00 0.00 58 1006.9
20260506043244 69 168 0.0 0.0 0.00 0.00 0.00 59 1006.9
20260506042737 69 168 0.0 0.0 0.00 0.00 0.00 59 1006.9
20260506042540 69 168 0.0 0.0 0.00 0.00 0.00 60 1007.0
20260506041733 69 168 0.0 0.0 0.00 0.00 0.00 60 1006.8
20260506041231 70 168 0.0 0.0 0.00 0.00 0.00 63 1006.9
20260506040730 70 168 0.0 1.0 0.00 0.00 0.00 65 1006.9
20260506040228 70 168 0.0 1.0 0.00 0.00 0.00 66 1006.8
20260506035727 70 168 0.0 0.0 0.00 0.00 0.00 67 1006.8
20260506035228 71 168 0.0 0.0 0.00 0.00 0.00 66 1006.6
20260506034722 71 168 0.0 0.0 0.00 0.00 0.00 67 1006.6
20260506034221 71 168 0.0 0.0 0.00 0.00 0.00 69 1006.6
20260506033719 71 168 0.0 0.0 0.00 0.00 0.00 70 1006.4
20260506033221 72 168 0.0 0.0 0.00 0.00 0.00 70 1006.5
20260506032721 72 168 0.0 0.0 0.00 0.00 0.00 70 1006.5
20260506032216 73 168 0.0 0.0 0.00 0.00 0.00 70 1006.4
20260506031716 73 168 0.0 0.0 0.00 0.00 0.00 70 1006.3
20260506031519 74 170 0.0 0.0 0.00 0.00 0.00 71 1006.2
20260506030712 74 170 0.0 0.0 0.00 0.00 0.00 70 1006.2
20260506030223 74 170 0.0 0.0 0.00 0.00 0.00 71 1006.1
20260506025838 75 170 0.0 0.0 0.00 0.00 0.00 70 1006.1
20260506025020 76 170 0.0 0.0 0.00 0.00 0.00 70 1006.0
20260506024516 76 170 0.0 0.0 0.00 0.00 0.00 70 1005.9
20260506024010 77 170 0.0 0.0 0.00 0.00 0.00 69 1005.8
20260506023510 77 170 0.0 0.0 0.00 0.00 0.00 69 1005.5
20260506023008 77 170 0.0 0.0 0.00 0.00 0.00 69 1005.5
20260506022508 78 170 0.0 0.0 0.00 0.00 0.00 69 1005.5
20260506022006 78 170 0.0 0.0 0.00 0.00 0.00 68 1005.4
20260506021505 79 170 0.0 0.0 0.00 0.00 0.00 68 1005.3
20260506021006 79 170 0.0 2.0 0.00 0.00 0.00 68 1005.2
20260506020506 79 170 0.0 2.0 0.00 0.00 0.00 68 1005.2
20260506020004 80 163 0.0 0.0 0.00 0.00 0.00 67 1005.1
20260506015504 80 163 0.0 0.0 0.00 0.00 0.00 67 1005.1
20260506015004 80 163 0.0 5.0 0.00 0.00 0.00 66 1005.1
20260506014507 80 163 0.0 5.0 0.00 0.00 0.00 66 1004.9
20260506014010 81 138 0.0 2.0 0.00 0.00 0.00 64 1004.6
20260506013506 82 92 0.0 3.0 0.00 0.00 0.00 63 1004.6
20260506013004 82 92 0.0 3.0 0.00 0.00 0.00 61 1004.6
20260506012811 83 92 0.0 3.0 0.00 0.00 0.00 59 1004.5
20260506012001 84 92 0.0 3.0 0.00 0.00 0.00 57 1004.4
20260506011501 86 32 0.0 1.0 0.00 0.00 0.00 54 1004.4
20260506011003 87 311 0.0 0.0 0.00 0.00 0.00 54 1004.3
20260506010502 88 311 0.0 0.0 0.00 0.00 0.00 53 1004.2
20260506010310 89 311 0.0 0.0 0.00 0.00 0.00 51 1004.2
20260506005806 90 311 0.0 0.0 0.00 0.00 0.00 52 1004.1
20260506004957 90 311 0.0 0.0 0.00 0.00 0.00 50 1004.1
20260506004455 91 311 0.0 0.0 0.00 0.00 0.00 49 1004.0
20260506004258 92 311 0.0 0.0 0.00 0.00 0.00 44 1004.1
20260506003756 92 311 0.0 0.0 0.00 0.00 0.00 44 1004.1
20260506002953 92 311 0.0 0.0 0.00 0.00 0.00 46 1004.1
20260506002505 92 311 0.0 0.0 0.00 0.00 0.00 46 1004.1
20260506002000 92 311 0.0 0.0 0.00 0.00 0.00 44 1004.2
20260506001501 92 311 0.0 0.0 0.00 0.00 0.00 41 1004.2
20260506000953 93 311 0.0 0.0 0.00 0.00 0.00 42 1004.2
20260506000448 93 311 0.0 0.0 0.00 0.00 0.00 39 1004.2
20260505235942 93 311 0.0 0.0 0.00 0.00 0.00 40 1004.1
20260505235243 93 311 0.0 1.0 0.00 0.00 0.00 40 1004.2
20260505234744 93 311 0.0 0.0 0.00 0.00 0.00 37 1004.2
20260505234140 93 286 0.0 2.0 0.00 0.00 0.00 38 1004.1
20260505233633 93 310 0.0 4.0 0.00 0.00 0.00 42 1004.1
20260505233134 92 305 0.0 4.0 0.00 0.00 0.00 41 1004.1
20260505232630 92 5 0.0 3.0 0.00 0.00 0.00 39 1004.1
20260505232129 92 5 0.0 3.0 0.00 0.00 0.00 42 1004.1
20260505231629 92 355 0.0 1.0 0.00 0.00 0.00 41 1004.2
20260505231129 92 313 0.0 1.0 0.00 0.00 0.00 41 1004.1
20260505230946 92 285 0.0 1.0 0.00 0.00 0.00 41 1004.2
20260505230129 93 296 0.0 1.0 0.00 0.00 0.00 40 1004.2
20260505225635 93 331 0.0 3.0 0.00 0.00 0.00 40 1004.1
20260505225138 93 327 0.0 0.0 0.00 0.00 0.00 41 1004.1
20260505224431 94 250 0.0 1.0 0.00 0.00 0.00 39 1004.2
20260505223932 94 248 0.0 2.0 0.00 0.00 0.00 36 1004.3
20260505223431 94 275 0.0 2.0 0.00 0.00 0.00 35 1004.1
20260505222930 94 306 1.0 5.0 0.00 0.00 0.00 36 1004.1
20260505222800 95 292 1.0 5.0 0.00 0.00 0.00 36 1004.0
20260505222242 95 337 1.0 6.0 0.00 0.00 0.00 37 1004.1
20260505221430 95 311 1.0 6.0 0.00 0.00 0.00 35 1004.1
20260505220930 95 313 0.0 2.0 0.00 0.00 0.00 35 1004.0
20260505220430 95 320 0.0 2.0 0.00 0.00 0.00 33 1004.2
20260505215929 95 296 0.0 1.0 0.00 0.00 0.00 33 1004.2
20260505215432 95 257 0.0 1.0 0.00 0.00 0.00 36 1004.2
20260505214928 95 230 0.0 1.0 0.00 0.00 0.00 34 1004.2
20260505214421 95 268 0.0 1.0 0.00 0.00 0.00 36 1004.2
20260505213915 94 325 0.0 1.0 0.00 0.00 0.00 36 1004.3
20260505213420 94 255 0.0 1.0 0.00 0.00 0.00 34 1004.2
20260505212912 94 238 0.0 1.0 0.00 0.00 0.00 34 1004.3
20260505212412 94 258 0.0 1.0 0.00 0.00 0.00 37 1004.3
20260505211913 94 258 0.0 3.0 0.00 0.00 0.00 36 1004.2
20260505211412 94 262 0.0 7.0 0.00 0.00 0.00 36 1004.4
20260505210910 94 220 0.0 7.0 0.00 0.00 0.00 33 1004.5
20260505210407 94 220 3.0 9.0 0.00 0.00 0.00 38 1004.4
20260505205906 94 234 5.0 9.0 0.00 0.00 0.00 35 1004.5
20260505205405 94 274 3.0 9.0 0.00 0.00 0.00 37 1004.6
20260505204911 94 312 1.0 9.0 0.00 0.00 0.00 42 1004.6
20260505204403 94 244 0.0 1.0 0.00 0.00 0.00 44 1004.6
20260505203902 93 265 0.0 2.0 0.00 0.00 0.00 42 1004.9
20260505203402 94 264 1.0 3.0 0.00 0.00 0.00 41 1004.8
20260505202901 93 227 1.0 9.0 0.00 0.00 0.00 45 1004.9
20260505202401 93 253 0.0 9.0 0.00 0.00 0.00 44 1004.9
20260505201902 93 156 0.0 1.0 0.00 0.00 0.00 47 1005.0
20260505201709 93 257 0.0 1.0 0.00 0.00 0.00 44 1005.0
20260505200902 93 152 0.0 0.0 0.00 0.00 0.00 46 1005.0
20260505200408 93 221 0.0 1.0 0.00 0.00 0.00 47 1005.1
20260505195901 93 247 0.0 1.0 0.00 0.00 0.00 46 1005.2
20260505195402 92 232 0.0 0.0 0.00 0.00 0.00 46 1005.1
20260505194901 92 248 0.0 1.0 0.00 0.00 0.00 47 1005.1
20260505194359 92 248 0.0 1.0 0.00 0.00 0.00 46 1005.2
20260505194217 92 302 0.0 1.0 0.00 0.00 0.00 46 1005.3
20260505193719 91 172 0.0 1.0 0.00 0.00 0.00 51 1005.2
20260505192903 91 278 0.0 1.0 0.00 0.00 0.00 49 1005.2
20260505192353 90 221 0.0 1.0 0.00 0.00 0.00 51 1005.2
20260505191858 90 295 0.0 1.0 0.00 0.00 0.00 48 1005.4
20260505191354 91 228 0.0 1.0 0.00 0.00 0.00 52 1005.4
20260505190855 90 195 0.0 1.0 0.00 0.00 0.00 53 1005.6
20260505190352 90 229 0.0 0.0 0.00 0.00 0.00 57 1005.5
20260505190159 90 215 0.0 0.0 0.00 0.00 0.00 57 1005.6
20260505185656 90 134 0.0 0.0 0.00 0.00 0.00 54 1005.6
20260505185135 89 219 0.0 0.0 0.00 0.00 0.00 56 1005.7
20260505183814 89 171 0.0 0.0 0.00 0.00 0.00 60 1005.9
20260505183314 88 228 0.0 1.0 0.00 0.00 0.00 60 1006.0
20260505182813 88 250 0.0 1.0 0.00 0.00 0.00 57 1006.1
20260505182311 88 230 0.0 0.0 0.00 0.00 0.00 60 1006.3
20260505181808 87 220 0.0 4.0 0.00 0.00 0.00 60 1006.3
20260505181316 87 281 0.0 4.0 0.00 0.00 0.00 60 1006.4
20260505180811 87 229 0.0 1.0 0.00 0.00 0.00 60 1006.5
20260505180309 86 234 0.0 1.0 0.00 0.00 0.00 61 1006.5
20260505175808 86 224 0.0 5.0 0.00 0.00 0.00 61 1006.8
20260505175306 86 227 1.0 7.0 0.00 0.00 0.00 62 1006.9
20260505174802 85 231 3.0 10.0 0.00 0.00 0.00 61 1007.0
20260505174301 85 244 4.0 10.0 0.00 0.00 0.00 62 1007.0
20260505173802 85 232 5.0 10.0 0.00 0.00 0.00 63 1007.0
20260505173259 85 226 3.0 10.0 0.00 0.00 0.00 65 1007.1
20260505172759 84 258 1.0 9.0 0.00 0.00 0.00 64 1007.2
20260505172259 84 232 2.0 9.0 0.00 0.00 0.00 64 1007.3
20260505171800 84 215 5.0 9.0 0.00 0.00 0.00 65 1007.3
20260505171259 84 220 5.0 9.0 0.00 0.00 0.00 64 1007.3
20260505171104 83 229 1.0 9.0 0.00 0.00 0.00 65 1007.2
20260505170256 83 224 0.0 2.0 0.00 0.00 0.00 67 1007.3
20260505165758 83 217 0.0 3.0 0.00 0.00 0.00 68 1007.3
20260505165739 82 240 1.0 9.0 0.00 0.00 0.00 69 1007.3
20260505165358 82 258 1.0 7.0 0.00 0.00 0.00 68 1007.3
20260505164255 82 231 0.0 9.0 0.00 0.00 0.00 69 1007.3
20260505163753 81 170 1.0 8.0 0.00 0.00 0.00 69 1007.1
20260505163252 80 223 1.0 8.0 0.00 0.00 0.00 69 1007.1
20260505162756 80 204 0.0 7.0 0.00 0.00 0.00 69 1007.1
20260505162607 80 211 0.0 1.0 0.00 0.00 0.00 70 1007.0
20260505161754 79 221 0.0 1.0 0.00 0.00 0.00 70 1007.0
20260505161253 79 229 0.0 1.0 0.00 0.00 0.00 70 1007.0
20260505160748 78 218 1.0 8.0 0.00 0.00 0.00 70 1007.0
20260505160247 77 225 3.0 8.0 0.00 0.00 0.00 68 1007.0
20260505152751 74 223 7.0 12.0 0.00 0.00 0.00 66 1007.1
20260505152250 74 217 6.0 10.0 0.00 0.00 0.00 63 1007.2
20260505151749 74 232 5.0 9.0 0.00 0.00 0.00 62 1007.2
20260505151254 74 227 6.0 0.0 0.00 0.00 0.00 63 1007.1
20260505150810 73 210 6.0 14.0 0.00 0.00 0.00 63 1007.1
20260505150631 73 227 6.0 11.0 0.00 0.00 0.00 61 1007.0
20260505140420 69 242 0.0 0.0 0.00 0.00 0.00 25 1007.0
20260505130257 66 210 0.0 7.0 0.00 0.00 0.00 23 1006.2
20260505124159 65 196 0.0 3.0 0.00 0.00 0.00 25 1006.2
20260505123659 65 186 0.0 3.0 0.00 0.00 0.00 25 1006.1
20260505123158 65 226 0.0 0.0 0.00 0.00 0.00 25 1006.1
20260505123003 64 202 0.0 0.0 0.00 0.00 0.00 26 1006.1
20260505122154 64 170 0.0 0.0 0.00 0.00 0.00 26 1006.2
20260505121954 64 170 0.0 0.0 0.00 0.00 0.00 27 1006.0
20260505121145 64 170 0.0 0.0 0.00 0.00 0.00 27 1005.9
20260505120639 64 170 0.0 0.0 0.00 0.00 0.00 28 1005.8
20260505120143 64 170 0.0 0.0 0.00 0.00 0.00 28 1005.7
20260505115823 63 170 0.0 0.0 0.00 0.00 0.00 28 1005.7
20260505115319 63 170 0.0 0.0 0.00 0.00 0.00 28 1005.6
20260505114818 63 170 0.0 0.0 0.00 0.00 0.00 29 1005.6
20260505114316 63 170 0.0 0.0 0.00 0.00 0.00 29 1005.5
20260505114123 63 170 0.0 0.0 0.00 0.00 0.00 29 1005.4
20260505113636 63 170 0.0 0.0 0.00 0.00 0.00 30 1005.3
20260505113127 63 170 0.0 0.0 0.00 0.00 0.00 30 1005.3
20260505112312 63 170 0.0 0.0 0.00 0.00 0.00 31 1005.3
20260505111811 63 170 0.0 0.0 0.00 0.00 0.00 31 1005.3
20260505111308 63 170 0.0 0.0 0.00 0.00 0.00 31 1005.3
20260505111120 63 170 0.0 0.0 0.00 0.00 0.00 32 1005.3
20260505110304 63 170 0.0 0.0 0.00 0.00 0.00 32 1005.3
20260505101503 62 170 0.0 0.0 0.00 0.00 0.00 42 1005.3
20260505101002 62 170 0.0 0.0 0.00 0.00 0.00 45 1005.2
20260505100501 62 171 0.0 0.0 0.00 0.00 0.00 47 1005.4
20260505100000 62 171 0.0 0.0 0.00 0.00 0.00 49 1005.4
20260505095927 62 171 0.0 0.0 0.00 0.00 0.00 52 1005.5
20260505095559 62 170 0.0 0.0 0.00 0.00 0.00 50 1005.4
20260505094808 62 171 0.0 0.0 0.00 0.00 0.00 53 1005.4
20260505094002 62 171 0.0 0.0 0.00 0.00 0.00 55 1005.6
20260505093807 62 171 0.0 0.0 0.00 0.00 0.00 55 1005.6
20260505093008 62 171 0.0 0.0 0.00 0.00 0.00 55 1005.6
20260505092500 63 171 0.0 0.0 0.00 0.00 0.00 55 1005.5
20260505092005 63 171 0.0 0.0 0.00 0.00 0.00 54 1005.5
20260505091251 63 171 0.0 0.0 0.00 0.00 0.00 54 1005.6